FW1524 Weather Reports


time (UTC)temp
C
wind
direction
speed
KPH
gust
KPH
rain 1hr
cm
rain 24hr
cm
rain mn
cm
humidity
%
barometer
mb
20260503184511 13 213 0.0 14.5 0.00 0.00 0.00 39 1010.0
20260503181559 13 14 0.0 4.8 0.00 0.00 0.00 41 1010.4
20260503180057 12 215 0.0 22.5 0.00 0.00 0.00 44 1010.8
20260503174551 12 242 0.0 16.1 0.00 0.00 0.00 43 1011.0
20260503173146 12 355 0.0 1.6 0.00 0.00 0.00 45 1011.2
20260503171604 11 234 0.0 11.3 0.00 0.00 0.00 44 1011.2
20260503081521 3 275 0.0 0.0 0.00 0.00 0.00 1 1011.8
20260503071612 3 275 0.0 0.0 0.00 0.00 0.00 1 1011.7
20260503054541 3 275 0.0 0.0 0.00 0.00 0.00 11 1012.1
20260503053036 4 275 0.0 0.0 0.00 0.03 0.00 20 1012.3
20260503051531 4 275 0.0 0.0 0.00 0.03 0.00 27 1012.2
20260503050027 5 275 0.0 0.0 0.00 0.03 0.00 32 1012.7
20260503044541 5 275 0.0 0.0 0.00 0.03 0.00 36 1012.8
20260503043036 5 272 0.0 0.0 0.00 0.03 0.03 38 1012.9
20260503041523 5 5 0.0 0.0 0.00 0.03 0.03 42 1013.0
20260503040019 5 16 0.0 0.0 0.00 0.03 0.03 45 1012.9
20260503034514 5 242 0.0 0.0 0.00 0.03 0.03 47 1013.0
20260503033009 5 242 0.0 0.0 0.00 0.08 0.03 51 1012.9
20260503031501 5 242 0.0 0.0 0.00 0.08 0.03 52 1012.9
20260503024552 6 19 0.0 0.0 0.00 0.08 0.03 57 1012.9
20260503023050 6 26 0.0 0.0 0.00 0.15 0.03 58 1012.9
20260503021544 6 28 0.0 0.0 0.00 0.15 0.03 59 1013.0
20260503020040 6 28 0.0 0.0 0.00 0.15 0.03 60 1012.9
20260503014530 6 38 0.0 0.0 0.00 0.15 0.03 61 1013.0
20260503013026 6 241 0.0 0.0 0.00 0.20 0.03 61 1012.9
20260503011525 7 240 0.0 0.0 0.00 0.20 0.03 61 1012.7
20260503010027 7 30 0.0 0.0 0.00 0.20 0.03 60 1012.6
20260503004516 7 44 0.0 0.0 0.00 0.20 0.03 59 1012.4
20260503003017 7 5 0.0 0.0 0.00 0.28 0.03 58 1012.3
20260503001534 7 5 0.0 0.0 0.00 0.28 0.03 57 1012.3
20260503000046 7 225 0.0 0.0 0.00 0.28 0.03 58 1012.2
20260502234533 7 309 0.0 0.0 0.00 0.28 0.03 57 1012.2
20260502233033 8 18 0.0 0.0 0.00 0.41 0.03 58 1011.9
20260502231536 8 236 0.0 0.0 0.00 0.41 0.03 58 1011.8
20260502230033 8 208 0.0 0.0 0.00 0.41 0.03 58 1011.7
20260502224536 8 232 0.0 0.0 0.00 0.41 0.03 58 1011.7
20260502223033 8 214 0.0 0.0 0.00 0.41 0.03 59 1011.7
20260502221531 8 15 0.0 0.0 0.00 0.41 0.03 57 1011.8
20260502220033 8 11 0.0 3.2 0.00 0.41 0.03 56 1011.7
20260502214530 8 35 0.0 3.2 0.00 0.41 0.03 55 1011.5
20260502213037 8 232 0.0 0.0 0.00 0.41 0.03 56 1011.5
20260502211533 8 24 0.0 1.6 0.00 0.41 0.03 55 1011.5
20260502210027 9 231 0.0 0.0 0.00 0.41 0.03 55 1011.4
20260502204524 9 24 0.0 0.0 0.00 0.41 0.03 53 1011.5
20260502203023 9 227 0.0 1.6 0.00 0.41 0.03 52 1011.4
20260502201552 10 13 0.0 0.0 0.00 0.41 0.03 51 1011.5
20260502200110 9 22 0.0 0.0 0.00 0.41 0.03 52 1011.7
20260502194549 10 214 0.0 3.2 0.00 0.41 0.03 50 1011.9
20260502193052 10 227 0.0 0.0 0.00 0.41 0.03 49 1012.0
20260502191523 10 36 0.0 0.0 0.00 0.41 0.03 48 1012.1
20260502190035 10 238 0.0 1.6 0.00 0.41 0.03 51 1012.2